When you browse on this site, cookies collect data to enhance your experience and personalize the content and advertising you see.
Visit our Privacy Policy to learn more. By continuing to use the site, you agree to this use of cookies and data.
  • In Hungary
  • List of Countries
  • For 7 days
  • Water Temperature
  • Satellite Maps
  • Weather Map
  • News
  • Weather Widgets
  • user-avatar
    Login

    Hourly Weather Probudzhennya

    Today, 11 December, Tuesday

    Time Temperature Precipitation Wind Pressure Humidity
    00:00 +5°C° 0 mm 1 mps 753 mmHg 94%
    01:00 +4°C° 0 mm 2 mps 753 mmHg 94%
    02:00 +4°C° 0 mm 2 mps 753 mmHg 94%
    03:00 +3°C° 0 mm 3 mps 752 mmHg 94%
    04:00 +3°C° 0 mm 4 mps 752 mmHg 94%
    05:00 +2°C° 0 mm 5 mps 752 mmHg 94%
    06:00 +2°C° 0.3 mm 5 mps 752 mmHg 93%
    07:00 +2°C° 0.3 mm 6 mps 751 mmHg 93%
    08:00 +2°C° 0.3 mm 7 mps 751 mmHg 92%
    09:00 +2°C° 2.5 mm 8 mps 750 mmHg 92%
    10:00 +2°C° 2.5 mm 9 mps 750 mmHg 92%
    11:00 +3°C° 2.5 mm 9 mps 749 mmHg 92%
    12:00 +3°C° 2.3 mm 9 mps 748 mmHg 92%
    13:00 +3°C° 2.3 mm 10 mps 748 mmHg 91%
    14:00 +3°C° 2.3 mm 10 mps 747 mmHg 91%
    15:00 +3°C° 1.8 mm 9 mps 747 mmHg 90%
    16:00 +3°C° 1.8 mm 9 mps 746 mmHg 90%
    17:00 +3°C° 1.8 mm 9 mps 746 mmHg 89%
    18:00 +5°C° 0.4 mm 8 mps 746 mmHg 90%
    19:00 +5°C° 0.4 mm 7 mps 746 mmHg 90%
    20:00 +5°C° 0.4 mm 6 mps 745 mmHg 91%
    21:00 +5°C° 0.2 mm 6 mps 745 mmHg 91%
    22:00 +5°C° 0.2 mm 6 mps 746 mmHg 91%
    23:00 +5°C° 0.2 mm 6 mps 746 mmHg 92%

    Tomorrow, 12 December, Wednesday

    Time Temperature Precipitation Wind Pressure Humidity
    00:00 +4°C° 0.4 mm 7 mps 746 mmHg 92%
    01:00 +4°C° 0.4 mm 8 mps 747 mmHg 92%
    02:00 +4°C° 0.4 mm 8 mps 747 mmHg 92%
    03:00 +2°C° 0.5 mm 9 mps 747 mmHg 91%
    04:00 +2°C° 0.5 mm 10 mps 748 mmHg 89%
    05:00 +1°C° 0.5 mm 11 mps 748 mmHg 87%
    06:00 0°C° 0.2 mm 12 mps 749 mmHg 86%
    07:00 -1°C° 0.2 mm 12 mps 750 mmHg 84%
    08:00 -1°C° 0.2 mm 12 mps 751 mmHg 83%
    09:00 -1°C° 0 mm 12 mps 751 mmHg 82%
    10:00 -1°C° 0 mm 11 mps 752 mmHg 80%
    11:00 -1°C° 0 mm 11 mps 753 mmHg 79%
    12:00 0°C° 0 mm 10 mps 753 mmHg 78%
    13:00 0°C° 0 mm 10 mps 753 mmHg 78%
    14:00 0°C° 0 mm 9 mps 754 mmHg 77%
    15:00 0°C° 0 mm 9 mps 754 mmHg 78%
    16:00 0°C° 0 mm 8 mps 755 mmHg 78%
    17:00 0°C° 0 mm 7 mps 755 mmHg 78%
    18:00 -1°C° 0 mm 7 mps 756 mmHg 79%
    19:00 -1°C° 0 mm 6 mps 756 mmHg 81%
    20:00 0°C° 0 mm 5 mps 757 mmHg 82%
    21:00 0°C° 0 mm 5 mps 757 mmHg 83%
    22:00 -1°C° 0 mm 5 mps 757 mmHg 84%
    23:00 -1°C° 0 mm 5 mps 758 mmHg 85%

    Day after tomorrow, 13 December, Thursday

    Time Temperature Precipitation Wind Pressure Humidity
    00:00 -1°C° 0 mm 5 mps 758 mmHg 85%
    01:00 -1°C° 0 mm 4 mps 758 mmHg 85%
    02:00 -1°C° 0 mm 4 mps 758 mmHg 86%
    03:00 -1°C° 0 mm 4 mps 758 mmHg 85%
    04:00 -1°C° 0 mm 4 mps 759 mmHg 84%
    05:00 -1°C° 0 mm 5 mps 759 mmHg 83%
    06:00 -1°C° 0 mm 5 mps 759 mmHg 82%
    07:00 -1°C° 0 mm 5 mps 759 mmHg 80%
    08:00 0°C° 0 mm 5 mps 760 mmHg 79%
    09:00 +1°C° 0 mm 6 mps 760 mmHg 74%
    10:00 +2°C° 0 mm 6 mps 760 mmHg 69%
    11:00 +3°C° 0 mm 6 mps 760 mmHg 64%
    12:00 +3°C° 0 mm 5 mps 760 mmHg 64%
    13:00 +4°C° 0 mm 4 mps 760 mmHg 64%
    14:00 +5°C° 0 mm 4 mps 760 mmHg 64%
    15:00 +4°C° 0 mm 4 mps 761 mmHg 68%
    16:00 +3°C° 0 mm 4 mps 761 mmHg 73%
    17:00 +2°C° 0 mm 3 mps 761 mmHg 78%
    18:00 +1°C° 0 mm 4 mps 761 mmHg 80%
    19:00 +1°C° 0 mm 4 mps 761 mmHg 83%
    20:00 0°C° 0 mm 4 mps 762 mmHg 85%
    21:00 0°C° 0 mm 4 mps 762 mmHg 86%
    22:00 0°C° 0 mm 4 mps 762 mmHg 87%
    23:00 0°C° 0 mm 4 mps 762 mmHg 88%

    14 December, Friday

    Time Temperature Precipitation Wind Pressure Humidity
    00:00 0°C° 0 mm 4 mps 762 mmHg 87%
    01:00 -1°C° 0 mm 4 mps 762 mmHg 87%
    02:00 -1°C° 0 mm 4 mps 762 mmHg 87%
    03:00 0°C° 0 mm 3 mps 762 mmHg 86%
    04:00 0°C° 0 mm 3 mps 762 mmHg 86%
    05:00 0°C° 0 mm 3 mps 762 mmHg 85%
    06:00 0°C° 0 mm 3 mps 762 mmHg 84%
    07:00 +1°C° 0 mm 2 mps 763 mmHg 83%
    08:00 +2°C° 0 mm 2 mps 763 mmHg 82%
    09:00 +3°C° 0 mm 2 mps 763 mmHg 77%
    10:00 +4°C° 0 mm 2 mps 763 mmHg 72%
    11:00 +6°C° 0 mm 2 mps 763 mmHg 66%
    12:00 +6°C° 0 mm 2 mps 763 mmHg 67%
    13:00 +6°C° 0 mm 2 mps 763 mmHg 67%
    14:00 +6°C° 0 mm 2 mps 763 mmHg 67%
    15:00 +6°C° 0.1 mm 1 mps 763 mmHg 72%
    16:00 +6°C° 0.1 mm 1 mps 764 mmHg 77%
    17:00 +5°C° 0.1 mm 1 mps 764 mmHg 81%
    18:00 +5°C° 0.1 mm 1 mps 764 mmHg 82%
    19:00 +5°C° 0.1 mm 1 mps 764 mmHg 83%
    20:00 +4°C° 0.1 mm 1 mps 765 mmHg 83%
    21:00 +3°C° 0.1 mm 2 mps 765 mmHg 83%
    22:00 +3°C° 0.1 mm 2 mps 765 mmHg 84%
    23:00 +3°C° 0.1 mm 2 mps 765 mmHg 84%

    15 December, Saturday

    Time Temperature Precipitation Wind Pressure Humidity
    00:00 +1°C° 0.1 mm 3 mps 765 mmHg 84%
    01:00 +1°C° 0.1 mm 3 mps 765 mmHg 85%
    02:00 +1°C° 0.1 mm 3 mps 765 mmHg 86%
    03:00 +1°C° 0 mm 3 mps 765 mmHg 88%
    04:00 -1°C° 0 mm 4 mps 765 mmHg 90%
    05:00 -1°C° 0 mm 4 mps 765 mmHg 92%
    06:00 -1°C° 0 mm 4 mps 766 mmHg 92%
    07:00 -1°C° 0 mm 4 mps 766 mmHg 92%
    08:00 -1°C° 0 mm 4 mps 766 mmHg 93%
    09:00 -1°C° 0 mm 4 mps 767 mmHg 89%
    10:00 0°C° 0 mm 5 mps 767 mmHg 86%
    11:00 +1°C° 0 mm 5 mps 768 mmHg 82%
    12:00 +1°C° 0 mm 5 mps 768 mmHg 83%
    13:00 +1°C° 0 mm 5 mps 768 mmHg 83%
    14:00 +1°C° 0 mm 5 mps 768 mmHg 83%
    15:00 +1°C° 0 mm 5 mps 768 mmHg 84%
    16:00 +1°C° 0 mm 5 mps 769 mmHg 85%
    17:00 +1°C° 0 mm 5 mps 769 mmHg 86%
    18:00 0°C° 0 mm 5 mps 770 mmHg 87%
    19:00 0°C° 0 mm 4 mps 770 mmHg 88%
    20:00 0°C° 0 mm 4 mps 770 mmHg 89%
    21:00 -1°C° 0 mm 4 mps 771 mmHg 90%
    22:00 -1°C° 0 mm 4 mps 771 mmHg 90%
    23:00 -1°C° 0 mm 4 mps 771 mmHg 90%

    16 December, Sunday

    Time Temperature Precipitation Wind Pressure Humidity
    00:00 -1°C° 0 mm 4 mps 771 mmHg 89%
    01:00 -1°C° 0 mm 4 mps 772 mmHg 88%
    02:00 -1°C° 0 mm 4 mps 772 mmHg 87%
    03:00 -1°C° 0 mm 4 mps 772 mmHg 87%
    04:00 -1°C° 0 mm 4 mps 772 mmHg 87%
    05:00 -1°C° 0 mm 4 mps 772 mmHg 86%
    06:00 -2°C° 0 mm 4 mps 772 mmHg 86%
    07:00 -2°C° 0 mm 5 mps 773 mmHg 86%
    08:00 -2°C° 0 mm 5 mps 773 mmHg 86%
    09:00 -2°C° 0 mm 5 mps 773 mmHg 83%
    10:00 -1°C° 0 mm 5 mps 773 mmHg 80%
    11:00 -1°C° 0 mm 5 mps 773 mmHg 77%
    12:00 0°C° 0 mm 5 mps 773 mmHg 76%
    13:00 0°C° 0 mm 5 mps 773 mmHg 75%
    14:00 0°C° 0 mm 5 mps 773 mmHg 74%
    15:00 -1°C° 0 mm 6 mps 773 mmHg 76%
    16:00 -2°C° 0 mm 6 mps 773 mmHg 78%
    17:00 -2°C° 0 mm 6 mps 773 mmHg 79%
    18:00 -3°C° 0 mm 6 mps 773 mmHg 80%
    19:00 -3°C° 0 mm 6 mps 773 mmHg 81%
    20:00 -3°C° 0 mm 6 mps 773 mmHg 82%
    21:00 -4°C° 0 mm 6 mps 773 mmHg 82%
    22:00 -4°C° 0 mm 6 mps 772 mmHg 83%
    23:00 -4°C° 0 mm 6 mps 772 mmHg 83%
    Show more